TimeEDT,TemperatureF,Dew PointF,Humidity,Sea Level PressureIn,VisibilityMPH,Wind Direction,Wind SpeedMPH,Gust SpeedMPH,PrecipitationIn,Events,Conditions,WindDirDegrees,DateUTC
12:51 AM,66.0,63.0,90,29.96,10.0,SW,6.9,-,N/A,,Clear,220,2013-06-12 04:51:00
1:51 AM,64.9,63.0,93,29.96,10.0,WSW,5.8,-,N/A,,Clear,240,2013-06-12 05:51:00
2:51 AM,63.0,62.1,97,29.98,10.0,Calm,Calm,-,N/A,,Clear,0,2013-06-12 06:51:00
3:51 AM,62.1,62.1,100,29.98,8.0,South,3.5,-,N/A,,Clear,190,2013-06-12 07:51:00
4:51 AM,64.0,62.1,93,29.97,10.0,South,5.8,-,N/A,,Clear,190,2013-06-12 08:51:00
5:51 AM,63.0,62.1,97,29.97,10.0,SSW,4.6,-,N/A,,Mostly Cloudy,200,2013-06-12 09:51:00
6:39 AM,64.4,62.6,94,30.05,10.0,SSW,5.8,-,N/A,,Overcast,210,2013-06-12 10:39:00
6:51 AM,64.9,62.1,90,29.96,10.0,SSW,6.9,-,N/A,,Mostly Cloudy,200,2013-06-12 10:51:00
7:01 AM,64.4,62.6,94,30.05,10.0,SW,6.9,-,N/A,,Scattered Clouds,220,2013-06-12 11:01:00
7:51 AM,66.9,63.0,87,29.98,10.0,SW,6.9,-,N/A,,Mostly Cloudy,230,2013-06-12 11:51:00
8:13 AM,68.0,62.6,83,30.07,10.0,SW,9.2,-,0.00,,Mostly Cloudy,230,2013-06-12 12:13:00
8:51 AM,64.9,64.9,100,30.00,1.5,WSW,9.2,-,0.01,Rain,Rain,240,2013-06-12 12:51:00
9:03 AM,64.4,64.4,100,30.07,3.0,SSW,8.1,-,0.16,Rain,Light Rain,210,2013-06-12 13:03:00
9:51 AM,69.1,66.9,93,29.99,10.0,WSW,8.1,-,0.16,,Overcast,240,2013-06-12 13:51:00
10:51 AM,73.9,69.1,85,29.97,10.0,West,10.4,-,N/A,,Scattered Clouds,260,2013-06-12 14:51:00
11:21 AM,75.2,69.8,83,30.06,10.0,WSW,9.2,-,N/A,,Mostly Cloudy,250,2013-06-12 15:21:00
11:51 AM,77.0,70.0,79,29.97,10.0,West,8.1,-,N/A,,Overcast,260,2013-06-12 15:51:00
12:51 PM,78.1,70.0,76,29.95,10.0,West,6.9,-,N/A,,Scattered Clouds,260,2013-06-12 16:51:00
1:51 PM,77.0,69.1,76,29.95,10.0,WSW,8.1,-,0.00,Rain,Light Rain,250,2013-06-12 17:51:00
2:51 PM,79.0,71.1,77,29.96,10.0,WSW,10.4,-,0.00,,Scattered Clouds,250,2013-06-12 18:51:00
3:00 PM,80.6,69.8,70,30.06,10.0,West,9.2,-,N/A,,Mostly Cloudy,270,2013-06-12 19:00:00
3:10 PM,80.6,71.6,74,30.05,10.0,West,10.4,17.3,N/A,,Mostly Cloudy,260,2013-06-12 19:10:00
3:51 PM,82.9,70.0,65,29.93,10.0,NW,10.4,16.1,N/A,,Partly Cloudy,310,2013-06-12 19:51:00
4:51 PM,84.0,69.1,61,29.90,10.0,NNW,8.1,-,N/A,,Partly Cloudy,330,2013-06-12 20:51:00
5:51 PM,84.0,69.1,61,29.88,10.0,West,9.2,-,N/A,,Clear,270,2013-06-12 21:51:00
6:51 PM,81.0,66.9,62,29.88,10.0,WSW,4.6,-,N/A,,Partly Cloudy,250,2013-06-12 22:51:00
7:51 PM,79.0,68.0,69,29.87,10.0,SW,5.8,-,N/A,,Clear,220,2013-06-12 23:51:00
8:51 PM,77.0,68.0,74,29.88,10.0,Calm,Calm,-,N/A,,Clear,0,2013-06-13 00:51:00
9:51 PM,73.0,68.0,84,29.88,10.0,South,4.6,-,N/A,,Clear,180,2013-06-13 01:51:00
10:51 PM,73.9,68.0,82,29.86,10.0,SSW,4.6,-,N/A,,Clear,200,2013-06-13 02:51:00
11:51 PM,73.0,68.0,84,29.85,10.0,South,6.9,-,N/A,,Clear,190,2013-06-13 03:51:00